Погода в Чернигове

Хотите узнать прогноз погоды в Чернигове? Тогда Вам сюда: Погода в Чернигове

Поиск расширенной информации на нашем сайте:

Полезная информация:

Новости сайта



02.01.2020
Опубликован Долгосрочный прогноз погоды по городам России и ближнего зарубежья на январь 2020 года.
Карты: Прогноз на январь и февраль 2020 года, Сравнение прогнозируемой аномалии приземной температуры воздуха на январь 2020 года по разным моделям.




Погода в Чернигове - сегодня

Время (UTC), дата Ветер
(°,м/с) 
Видим.   Явления Облачность Т
(°С)
Тd
(°С)
f(%) Тe
(°С)
Pmin
(гПа)
dP
(гПа)
Po
(мм)
O2
(г/м3)
Тmin Tmax R s Состояние
почвы
21 15.01.22 300 (СЗ) н/о    10/10 660 м 
[Sc]
+1.5 -4.7 63 -1  1014.7  750  301           
00 16.01.22 300 (СЗ) н/о    10/10 700 м 
[Sc]
+1.1 -4.5 66 -1  1016  1.3  751  302           
03 16.01.22 280 (З) н/о    10/10 700 м 
[Sc]
+1.3 -5.4 61 1017  0.9  751  302           
06 16.01.22 300 (СЗ) 10 км    10/10 900 м 
[Sc]
+0.7 -6.6 58 -2  1018  752  303  +0.7         
09 16.01.22 330 (СЗ) 20000 м    10/10 900 м 
[Sc]
+1 -8.4 49 -1  1019.1  1.1  753  303           
12 16.01.22 270 (З) 20000 м    10/8 1200 м средняя 
[Sc|Ac trans]
+0.9 -8.6 49 -1  1018  -1.1  752  303           
15 16.01.22 270 (З) н/о    3/0 средняя 
[Ac trans]
-1.5 -8.3 60 -1  1017.9  -0.2  752  306           
18 16.01.22 260 (З) н/о    1/0 верхняя 
[Ci fib]
-3.3 -6.1 81 -3  1016.5  -1.5  751  307    +1.4       
21 16.01.22 240 (ЮЗ) н/о    3/0 верхняя 
[Ci fib]
-4.1 -6 87 -5  1013.7  -2.8  749  307           
00 17.01.22 180 (Ю) н/о  дымка  10/0 верхняя 
[Cs]
-3.6 -4.7 92 -6  1009.8  -3.8  746  305           
03 17.01.22 200 (Ю) н/о  в посл. час ливневой снег  10/6 1000 м кучево-дожд., средняя 
[Cb cap|Ac und]
-3.4 -4.5 92 -6  1005.7  -4  743  304           
06 17.01.22 200 (Ю) 4000 м  в посл. час ливневой снег  10/8 1000 м кучево-дожд., средняя 
[Cb cap|Ac und]
-0.9 -1.9 93 -3  1001.8  -3.7  740  299  -4.1       
09 17.01.22 240 (ЮЗ) 4000 м  в посл. час ливневой снег  10/4 630 м кучево-дожд., средняя 
[Cb calv|As op]
+1.1 -1.1 85 -3  998.3  -3.4  738  296           
12 17.01.22 240 (ЮЗ) 4000 м  слаб. ливневой снег  10/10 720 м кучево-дожд. 
[Cb calv]
+2 +0.1 87 -2  994.3  -3.9  735  294           
15 17.01.22 220 (ЮЗ) н/о  слаб. ливневой дождь  10/10 720 м кучево-дожд. 
[Cb calv]
+1 -0.1 92 -3  991.3  -3  732  294           
18 17.01.22 280 (З) н/о  дымка{ливн. осадки}  10/10 1000 м 
[Sc]
+0.7 -1 88 -3  993.2  1.9  734  295    +2.4     
21 17.01.22 270 (З) н/о  {ливн. осадки}  9/9 1000 м 
[Sc]
-0.7 -3.1 84 -4  995.4  2.1  735  297           
00 18.01.22 330 (СЗ) 12  н/о  {ливн. осадки}  10/10 1000 м 
[Sc]
-1.7 -4.1 84 -8  997.8  2.3  737  299      0.3     
03 18.01.22 330 (СЗ) 12  н/о  {ливн. осадки}  10/10 1000 м 
[Sc]
-1.7 -4.1 84 -8  997.8  2.3  737  299      0.3     
06 18.01.22 330 (СЗ) 12  10 км  позёмок{ливн. осадки}  10/10 1000 м 
[Sc]
-3.6 -9.2 65 -10  1006.6  3.8  744  305  -4       
09 18.01.22 340 (С) 12  10 км  слаб. ливневой снег  10/10 660 м кучево-дожд. 
[Cb cap]
-3.6 -8.8 67 -10  1009.7  3.1  746  305           
12 18.01.22 340 (С) 12  10 км  слаб. ливневой снег  10/10 960 м кучево-дожд. 
[Cb cap]
-2.7 -9.7 59 -9  1012.1  2.4  748  305           
15 18.01.22 340 (С) 12  н/о  слаб. ливневой снег  10/10 840 м кучево-дожд. 
[Cb cap]
-3.3 -11.1 55 -10  1016.2  751  307           
18 18.01.22 340 (С) 12  н/о  слаб. ливневой снег  10/10 1000 м кучево-дожд. 
[Cb cap]
-3.9 -11.6 55 -10  1019.4  3.1  753  309    -2.5  0.4     
21 18.01.22 340 (С) 12  н/о  {ливн. осадки}  10/10 1080 м кучево-дожд. 
[Cb cap]
-5.1 -13.1 53 -12  1022.1  2.6  755  311           
Время (UTC), дата Ветер
(°,м/с) 
Видим.   Явления Облачность Т
(°С)
Тd
(°С)
f(%) Тe
(°С)
Pmin
(гПа)
dP
(гПа)
Po
(мм)
O2
(г/м3)
Тmin Tmax R s Состояние
почвы

Для получения пояснительной информации подведите курсор к названию столбца.

ПОГОДА в Чернигове - архив

Всё, что Вы хотите узнать о погоде в Чернигове - удобно и подробно!

Выберите нужную дату (начиная с 1 января 2019* года) и нажмите кнопку "Найти".
Будут отображены архивные сводки погоды по пункту Чернигов, начиная с указанной даты.


Отображать данные в формате CSV (для использования в таблицах Excel)


Внимание! Наш архив погоды предназначен исключительно для личного некоммерческого использования в познавательных целях. Если Вам необходимы официальные справки о состоянии погоды (для производственных, юридических, коммерческих и т.п. целей), обращайтесь в органы Росгидромета.

*Примечание: данная дата относится к архиву по метеостанциям СССР (Россия, СНГ, Балтия).
Архив по метеостанциям Зарубежной Европы и Азии (кроме Китая) хранится 10 дней, по другим регионам земного шара (Китай, Африка, Америка, Австралия, Океания) - 1 день.

Чернигов - район местоположения метеостанции


Название, широта, долгота, высота метеостанции:
Чернигов 51.5°ш. 31.2°д. 141 м над ур. моря [Украина]

Дополнительная информация

В oтличие oт бoльшинства пoгoдных сайтoв мы публикуем пoдрoбную метеoинфoрмацию в детальнoм прoфессиoнальнoм фoрмате.

Характеристики температуры и влажнoсти вoздуха измеряются на высoте 2 м в тени вдали oт зданий и деревьев.
Скoрoсть ветра измеряется на высoте 10 м (на урoвне рoста челoвека скoрoсть ветра ниже в 1.5-2 раза). Если метеoстанция нахoдится в гoрoде или в лесу, тo скoрoсть ветра занижена на 2-4 м/с пo сравнению с oткрытым местoм. Скoрoсть ветра над акватoриями крупных рек и oзёр, а также на вершинах хoлмoв на 2-5 м/с выше, чем в oбычных услoвиях.
Атмoсфернoе давление в разных тoчках местнoсти мoжет значительнo oтличаться oт давления на метеoстанции, в зависимoсти oт услoвий рельефа (при пoдъёме на 10 м давление пoнижается примернo на 1 мм рт.ст.).